Home   Weather   Minsk   Past weeks

Flag for Belarus Past Weather in Minsk, Belarus — Yesterday and Last 2 Weeks

Now
66 °F

Partly sunny.


Feels Like: 66 °F
Forecast: 53 / 68 °F
Wind: 13 mph from West

Location: Loshitsa / Minsk International 1

Current Time: Aug 30, 2016 at 2:05:31 PM

Latest Report: Aug 30, 2016 at 1:30 PM


Visibility: N/A

Pressure: 29.95 "Hg

Humidity: 60%

Dew Point: 52 °F

Location of MinskLocation

Past Weather in Minsk — Graph

°F

Minsk Temperature Yesterday

Maximum temperature yesterday: 88 °F (at 4:00 PM)
Minimum temperature yesterday: 61 °F (at 7:00 AM)
Average temperature yesterday: 78 °F

High & Low Weather Summary for the Past Weeks

 TemperatureHumidityPressure
High88 °F (Aug 29, 4:00 PM)100% (Aug 24, 7:00 AM)30.30 "Hg (Aug 24, 7:00 AM)
Low54 °F (Aug 16, 7:00 AM)33% (Aug 29, 4:00 PM)29.83 "Hg (Aug 16, 12:30 PM)
Average67 °F66%30.07 "Hg
* Reported Aug 15 1:00 PM — Aug 30 1:00 PM, Minsk, Weather by CustomWeather, © 2016

Note: Actual official high and low records may vary slightly from our data, if they occured in-between our weather recording intervals... More about our weather records

Advertising

Minsk Weather History for the Previous 24 Hours

Scroll right to see more
 ConditionsComfort  
Time TempWeatherWind HumidityBarometerVisibility
1:00 PM
Tue, Aug 30
66 °FPartly sunny.13 mph60%29.95 "HgN/A
12:30 PM66 °FPartly sunny.13 mph60%29.95 "HgN/A
12:00 PM66 °FPartly sunny.13 mph60%29.95 "HgN/A
11:30 AM64 °FPartly sunny.13 mph68%29.95 "HgN/A
11:00 AM64 °FPartly sunny.10 mph68%29.95 "HgN/A
10:30 AM63 °FPartly sunny.10 mph77%29.95 "HgN/A
10:00 AM63 °FPartly sunny.10 mph77%29.95 "HgN/A
9:30 AM63 °FPartly sunny.10 mph88%29.92 "HgN/A
9:00 AM63 °FPartly sunny.3 mph88%29.92 "HgN/A
8:30 AM64 °FPartly sunny.3 mph88%29.92 "HgN/A
8:00 AM64 °FPartly sunny.1 mph88%29.92 "HgN/A
7:30 AM64 °FPartly sunny.6 mph88%29.92 "HgN/A
7:00 AM64 °FPassing clouds.6 mph88%29.89 "HgN/A
5:30 PM
Mon, Aug 29
86 °FScattered clouds.15 mph38%29.86 "HgN/A
5:00 PM86 °FScattered clouds.15 mph38%29.86 "HgN/A
4:30 PM88 °FPartly sunny.13 mph33%29.86 "HgN/A
4:00 PM88 °FPartly sunny.13 mph33%29.86 "HgN/A
3:30 PM86 °FPartly sunny.13 mph35%29.86 "HgN/A
3:00 PM86 °FPartly sunny.15 mph35%29.86 "HgN/A
2:30 PM86 °FBroken clouds.15 mph35%29.86 "HgN/A
2:00 PM86 °FBroken clouds.15 mph35%29.86 "HgN/A
Weather by CustomWeather, © 2016

See weather overviewHow to use our weather pages